Regional Weather Roundup
Issued by NWS

Home | Current Version | Previous Version | Graphics & Text | Print | Product List | Glossary On
Versions: 1 2 3 4 5 6 7 8 9 10 11 12 13 14 15 16 17 18 19 20 21 22 23 24 25 26 27 28 29 30 31 32 33 34 35 36 37 38 39 40 41 42 43 44 45 46 47 48 49 50
000
ASUS44 KMEG 211000
RWRTN
TENNESSEE HOURLY STATE WEATHER ROUNDUP
NATIONAL WEATHER SERVICE MEMPHIS TN
400 AM CST SAT JAN 21 2017

TNZ002-004-019-021-049-052-054-088>092-211100-
WEST TENNESSEE

CITY           SKY/WX    TMP DP  RH WIND       PRES   REMARKS
MEMPHIS INTL   CLOUDY    61  52  72 CALM      29.66F
NWS MEMPHIS      N/A     58 N/A N/A MISG        N/A
JACKSON        CLOUDY    59  53  80 S5        29.68F
DYERSBURG      CLOUDY    59  50  72 CALM      29.66F
UNION CITY     PTCLDY    57  57 100 CALM      29.66S
PARIS          PTCLDY    55  52  88 CALM      29.69F
$$

TNZ008-025-027-028-033-062-065-066-211100-
NORTH MIDDLE TENNESSEE

CITY           SKY/WX    TMP DP  RH WIND       PRES   REMARKS
NASHVILLE      CLOUDY    58  53  84 S9        29.75F
CLARKSVILLE    CLOUDY    55  50  83 SE5       29.71F
SMYRNA         PTCLDY    56  53  90 S5        29.76F
CROSSVILLE     CLEAR     53  50  89 VRB5      29.82F
$$

TNZ061-075-076-078-094-096-097-211100-
SOUTH MIDDLE TENNESSEE

CITY           SKY/WX    TMP DP  RH WIND       PRES   REMARKS
TULLAHOMA      CLEAR     52  50  93 CALM      29.79F
WINCHESTER     CLEAR     55  54  94 SE5       29.79F
MCMINNVILLE    CLEAR     50  50 100 CALM      29.79F
COLUMBIA       CLEAR     59  59 100 S5        29.73F
SHELBYVILLE    CLEAR     55  55 100 E6        29.78F
$$

TNZ017-018-042-046-047-211100-
NORTHEAST TENNESSEE

CITY           SKY/WX    TMP DP  RH WIND       PRES   REMARKS
TRI CITIES     PTCLDY    45  44  97 CALM      29.86F
$$

TNZ012-013-036-069-073-074-211100-
CENTRAL EAST TENNESSEE

CITY           SKY/WX    TMP DP  RH WIND       PRES   REMARKS
KNOXVILLE      CLOUDY    51  48  89 CALM      29.82F
OAK RIDGE      MOCLDY    50  47  89 CALM      29.84F
GATLINBURG     CLEAR     45  45 100 CALM      29.84S
$$

TNZ083-085-099-211100-
SOUTHEAST TENNESSEE

CITY           SKY/WX    TMP DP  RH WIND       PRES   REMARKS
CHATTANOOGA    MOCLDY    51  49  92 CALM      29.81F
$$

SKY/WX REPORTED AS FAIR MEANS FEW OR NO CLOUDS BELOW
12 THOUSAND FEET.





USA.gov is the U.S. government's official web portal to all federal, state and local government web resources and services.